Regional Weather Roundup
Issued by NWS

Home | Current Version | Previous Version | Graphics & Text | Print | Product List | Glossary Off
Versions: 1 2 3 4 5 6 7 8 9 10 11 12 13 14 15 16 17 18 19 20 21 22 23 24 25 26 27 28 29 30 31 32 33 34 35 36 37 38 39 40 41 42 43 44 45 46 47 48 49 50

000
ASUS43 KDTX 100710
RWRMI
MICHIGAN HOURLY REGIONAL WEATHER ROUNDUP
NATIONAL WEATHER SERVICE DETROIT/PONTIAC MI
200 AM EST SAT DEC 10 2016

NOTE: "FAIR" INDICATES FEW OR NO CLOUDS BELOW 12,000 FEET WITH NO
SIGNIFICANT WEATHER AND/OR OBSTRUCTION TO VISIBILITY.

MIZ047>049-052>055-059>063-066>070-074>076-081>083-100800-
SOUTHEAST LOWER MICHIGAN

CITY           SKY/WX    TMP DP  RH WIND       PRES   REMARKS
ADRIAN         CLOUDY    22  18  85 W12       30.44R WCI  10
ALMA           CLOUDY    24  15  68 W12       30.39S WCI  13
ANN ARBOR      LGT SNOW  23  20  88 SW10      30.40S FOG     WCI  12
BAD AXE        CLOUDY    24  18  77 W8        30.35S WCI  16
CARO           CLOUDY    24  17  74 W7        30.36S WCI  16
DETROIT CITY   CLOUDY    25  18  74 W8        30.40S WCI  16
DETROIT        FLURRIES  25  20  81 W13       30.42S WCI  14
FLINT          CLOUDY    24  16  71 W10       30.39S WCI  14
GROSSE ILE     LGT SNOW  25  20  82 W8        30.41R WCI  17
HILLSDALE      CLOUDY    19  18  93 W8G16     30.40S WCI   9
HOWELL         CLOUDY    23  20  87 W10       30.38S WCI  13

CITY           SKY/WX    TMP DP  RH WIND       PRES   REMARKS
JACKSON        FLURRIES  21  17  84 W9        30.41R WCI  11
LAMBERTVILLE   CLOUDY    26  19  73 W7        30.44S WCI  19
LANSING        CLOUDY    23  17  78 W7        30.41R WCI  15
LAPEER         NOT AVBL
MASON          FLURRIES  22  20  91 W6        30.40S WCI  15
MONROE         CLOUDY    25  20  81 W12       30.42S WCI  15
MT. CLEMENS    CLOUDY    25  17  69 W9        30.37S WCI  16
PONTIAC        CLOUDY    23  16  74 W9        30.36S WCI  13
PORT HOPE        N/A     25  19  78 W8G20     30.32R WCI  16
PORT HURON     CLOUDY    25  16  68 W7        30.36F WCI  17
TRI CITIES     CLOUDY    24  17  74 W13       30.38S WCI  12
MIDLAND        CLOUDY    25  15  65 W8        30.37S WCI  16
TROY           CLOUDY    26  14  61 W7        30.40S WCI  18
SAGINAW HB     CLOUDY    27  16  63 W8        30.37S WCI  18
$$
MIZ043>046-050>051-056>058-064>065-071>073-077>080-100800-
SOUTHWEST LOWER MICHIGAN

CITY           SKY/WX    TMP DP  RH WIND       PRES   REMARKS
BATTLE CREEK   LGT SNOW  21  20  96 SW7       30.42S FOG     WCI  12
BENTON HARBOR  CLOUDY    27  13  55 W9        30.45F WCI  18
BIG RAPIDS     CLOUDY    22  15  74 W14       30.37R WCI   9
COLDWATER      FLURRIES  21  18  86 W8        30.43S WCI  11
FREMONT        CLOUDY    23  12  63 NW8       30.40F WCI  13
HOLLAND        FLURRIES  26  15  63 W10       30.43S WCI  16
GRAND RAPIDS   CLOUDY    23  15  71 W10       30.42S WCI  12
IONIA          CLOUDY    22  19  87 W8        30.40S WCI  13
KALAMAZOO      LGT SNOW  22  17  81 SW8       30.43S WCI  12
LUDINGTON      CLOUDY    23  10  59 NW10G18   30.41R WCI  12
MARSHALL       LGT SNOW  21  19  89 SW8       30.41S WCI  12
MOUNT PLEASANT CLOUDY    24  16  71 W13       30.37R WCI  12
MUSKEGON       FLURRIES  26  14  60 W13       30.43S WCI  15
SOUTH HAVEN    CLOUDY    27  15  60 NW6       30.44S WCI  21
$$
MIZ016>042-100800-
NORTHERN LOWER MICHIGAN

CITY           SKY/WX    TMP DP  RH WIND       PRES   REMARKS
ALPENA         CLOUDY    22  18  85 CALM      30.32S
BEAVER ISLAND  CLOUDY    21  13  71 W10G18    30.34R WCI  10
BELLAIRE       LGT SNOW  24  23  96 W5        30.34S WCI  18
CADILLAC       FLURRIES  20  16  86 W7        30.31S WCI  11
CHARLEVOIX     CLOUDY    25  16  69 W14G20    30.35S WCI  13
FRANKFORT      CLOUDY    23  13  67 W10       30.39R WCI  12
GAYLORD        LGT SNOW  19  15  84 CALM      30.27S FOG
GRAYLING       PTCLDY    19  17  90 SW5       30.31R WCI  12
HARBOR SPRINGS CLOUDY    22  17  79 N3        30.31S
HOUGHTON LAKE  CLOUDY    19  16  88 W9        30.32S WCI   8
MANISTEE       FLURRIES  22  12  65 W13       30.40R WCI  10
OSCODA         CLOUDY    24  19  79 MISG      30.32S
PELLSTON       CLOUDY    22  15  75 NW7       30.32R WCI  13
ROGERS CITY    CLOUDY    21  18  88 W3        30.32S
TRAVERSE CITY  CLOUDY    24  16  71 W10G20    30.35R WCI  14
$$
MIZ007>008-015-100800-
EASTERN UPPER MICHIGAN

CITY           SKY/WX    TMP DP  RH WIND       PRES   REMARKS
KINROSS        FLURRIES  15  13  91 S3        30.30S
MACKINAC ISLAN CLOUDY    21  17  83 NW12G18   30.30S WCI   9
NEWBERRY       CLOUDY    14  11  87 W9        30.29S WCI   2
S. S. MARIE    LGT SNOW  18  14  84 S6        30.29F FOG     WCI  10
MUNISING         N/A     10   3  73 SW8       30.34S WCI  -2
$$
MIZ004>006-011>014-085-100800-
CENTRAL UPPER MICHIGAN

CITY           SKY/WX    TMP DP  RH WIND       PRES   REMARKS
MANISTIQUE     CLEAR     12   6  75 W10       30.34S WCI  -1
ESCANABA       CLEAR     13   6  74 W8        30.38S WCI   2
MENOMINEE      CLOUDY    19   9  65 CALM      30.40F
SAWYER-GWINN   CLEAR      8   3  78 W10G17    30.31S WCI  -6
$$
MIZ001>003-009>011-084-100800-
WESTERN UPPER MICHIGAN

CITY           SKY/WX    TMP DP  RH WIND       PRES   REMARKS
IRON MOUNTAIN  CLOUDY    14   2  58 NW12      30.34S WCI   0
HOUGHTON       FLURRIES  13   7  77 W15       30.30R WCI  -3
COPPER HARBOR    N/A     18  16  92 VRB3      30.31F
IRONWOOD       LGT SNOW   8   3  80 W12       30.39S WCI  -7
$$

ABBREVIATIONS USED IN REMARKS
   TC - TEMPERATURE IN CELSIUS
  WCI - WIND CHILL INDEX
   HX - HEAT INDEX
  VSB - VISIBILITY




USA.gov is the U.S. government's official web portal to all federal, state and local government web resources and services.